Cloud_Cover
100 100 100 100 100 100 100 100 100 100 100 100 100 100 100 43 99 89 100 100 100 100 100 100 100 100 98 99 99 69 22 16 12 15 5 5 5 5 6 67 85 94 78 25
100 100 100 100 100 100 100 100 100 100 100 100 100 100 100 100 100 62 93 94 100 100 100 86 50 37 94 32 54 90 100 38 6 5 5 5 5 5 5 5 16 40 100 100
100 100 99 73 100 100 100 100 100 100 100 100 100 72 85 100 99 69 100 100 100 100 100 100 100 100 100 100 100 100 99 26 26 14 5 5 5 3 5 3 5 10 38 93
100 100 85 100 100 100 100 100 100 100 100 100 100 100 100 100 99 100 100 100 100 100 100 100 100 100 100 100 100 100 100 36 5 5 5 5 5 5 5 5 4 2 12 41
100 100 100 100 100 100 100 100 100 100 100 100 100 95 100 100 100 100 100 100 100 94 89 66 50 50 49 34 91 100 100 30 5 5 5 5 5 5 5 23 15 24 30 99
100 100 85 97 100 100 100 99 100 100 98 100 100 100 100 100 100 100 100 99 79 28 58 91 98 100 95 100 100 100 100 84 51 23 12 16 74 85 46 45 77 52 84 99
100 100 95 84 100 100 93 91 94 100 100 100 100 100 100 100 100 93 69 96 36 5 45 78 75 65 88 97 97 100 100 97 90 54 62 95 100 100 100 100 100 100 100 100
100 100 20 96 54 59 31 62 59 40 95 77 85 100 100 96 97 69 64 60 47 5 16 59 69 23 20 59 48 31 5 75 80 100 89 100 100 100 100 100 100 100 100 100
100 99 15 67 10 43 11 13 80 98 100 85 100 98 64 100 89 85 73 78 70 27 55 80 60 86 35 71 88 68 60 84 93 100 100 100 100 100 100 100 100 100 100 100
100 100 100 99 83 83 62 58 100 100 98 90 89 78 76 93 100 98 84 72 69 42 19 15 61 61 86 89 82 94 99 100 100 99 100 100 100 100 100 100 100 100 100 100
100 100 100 100 100 100 99 97 97 80 45 50 5 62 77 99 99 96 91 81 66 61 59 62 65 60 80 88 99 83 83 96 100 98 94 92 100 100 100 100 100 100 100 100
100 100 100 100 100 100 100 99 78 50 41 64 96 100 100 100 100 96 60 78 60 65 18 56 40 14 62 68 91 98 90 88 100 100 100 100 100 99 98 99 100 100 100 100
91 91 90 100 100 100 99 90 93 95 100 100 100 100 100 96 100 99 54 51 37 77 82 64 54 60 85 98 92 84 92 100 100 100 100 100 100 100 100 90 97 88 100 100
100 88 98 100 95 100 100 100 100 100 100 100 100 95 79 30 21 5 5 5 37 75 68 75 37 5 13 10 72 54 65 97 100 100 100 100 100 100 100 100 100 99 95 95
100 89 80 98 100 100 100 100 100 100 99 100 98 94 68 42 5 5 5 5 16 19 5 10 72 96 79 87 63 57 60 100 100 100 100 100 100 100 100 100 100 100 99 83
100 98 92 92 100 95 98 100 100 100 100 100 98 91 70 28 5 5 5 5 5 5 5 5 5 52 23 46 19 27 28 30 99 100 100 100 100 100 100 100 100 100 100 100
99 94 89 86 72 88 97 92 90 94 88 84 71 32 5 5 5 5 25 5 5 5 5 5 5 5 19 5 5 5 71 100 86 100 100 100 100 100 100 100 100 100 100 100
93 71 50 5 5 6 8 25 68 86 64 30 52 65 43 5 5 5 5 5 5 5 5 3 5 5 66 38 5 5 93 97 91 100 100 100 100 100 100 100 100 100 100 100
50 39 50 70 83 89 97 97 99 100 85 86 61 26 9 5 15 5 5 5 5 5 1 0 2 19 80 17 98 100 100 100 100 100 95 99 99 100 100 100 100 100 100 100
86 80 88 80 95 99 57 44 23 36 9 75 69 81 65 10 5 28 27 64 5 4 4 5 18 87 59 6 30 35 41 99 89 11 62 5 22 41 86 100 100 100 100 100
100 100 100 100 100 60 11 5 5 5 5 4 2 3 5 0 5 5 25 70 5 4 13 53 100 100 96 13 14 77 98 100 100 93 5 31 63 79 99 100 100 100 100 100
100 100 100 100 100 84 5 5 4 1 0 0 0 3 5 5 5 5 5 73 16 9 99 100 94 10 39 74 100 100 100 64 31 10 5 17 40 39 64 95 100 100 100 100
100 100 82 57 46 32 5 5 0 0 0 0 0 0 2 0 0 5 5 1 5 5 99 100 68 100 100 100 85 19 6 5 5 5 5 5 5 5 10 18 44 73 81 98
31 15 56 38 64 63 5 0 0 0 0 0 0 0 0 0 0 0 0 3 56 87 100 89 63 94 100 100 90 85 85 62 39 6 5 13 85 75 80 70 44 57 73 72
5 5 5 5 5 5 5 2 3 0 0 0 0 0 0 0 1 0 0 0 3 75 71 88 90 100 100 100 100 100 99 86 21 12 9 10 18 62 70 83 74 74 76 64
5 4 2 5 5 5 5 4 4 4 5 5 5 5 5 4 3 5 5 5 5 19 82 50 5 5 36 43 45 81 73 25 45 51 50 66 63 73 79 71 73 65 46 72
5 5 18 6 5 5 5 5 5 5 5 5 5 43 50 54 5 24 33 36 9 5 5 5 5 5 5 13 12 18 5 10 21 26 8 7 44 64 66 61 69 74 79 72